Location: Luxembourg
(49.6000°N, 6.1500°W)
Time: 07:01:57
(UTC+01:00)

N. Korean satellite - Visible Passes

Search period start: 25 February 2018 00:00
Search period end: 07 March 2018 00:00
Orbit: 459 x 514 km, 97.2° (Epoch: 24 February)

Date Brightness Start Highest point End Pass type
(mag) Time Alt. Az. Time Alt. Az. Time Alt. Az.
25 Feb 9.7 20:06:01 10° SW 20:08:37 20° W 20:11:17 10° NW visible
26 Feb 9.4 07:27:55 10° NE 07:31:03 25° E 07:34:11 10° SSE visible
26 Feb 8.4 19:41:29 10° SSW 19:44:42 35° W 19:48:01 10° NNW visible
27 Feb 10.2 07:04:57 10° NE 07:07:06 15° E 07:09:15 10° SE visible
28 Feb 10.3 20:29:48 10° WSW 20:31:03 11° W 20:32:19 10° WNW visible
01 Mar 9.6 20:04:21 10° SW 20:07:03 21° W 20:09:48 10° NW visible
02 Mar 9.5 07:26:22 10° NE 07:29:30 25° E 07:32:37 10° SSE visible
02 Mar 8.4 19:39:51 10° SSW 19:43:08 37° W 19:46:30 10° NNW visible
03 Mar 10.3 07:03:25 10° NE 07:05:32 14° E 07:07:39 10° SE visible
04 Mar 10.3 20:27:58 10° WSW 20:29:26 12° W 20:30:55 10° WNW visible
05 Mar 9.6 20:02:38 10° SW 20:05:25 21° W 20:08:16 10° NW visible
06 Mar 9.6 07:24:47 10° NE 07:27:54 24° E 07:31:00 10° SSE visible
